Albany, NY

8:01 AM EST on November 12, 2019 (GMT -0500)
Albany International

Weather History for KALB - September, 2019

Change the Weather History Date:

Monday, September 2, 2019

  Actual Average Record
Temperature  
Mean Temperature 69 °F 67 °F  
Max Temperature 76 °F 77 °F 100 °F (1953)
Min Temperature 62 °F 57 °F 38 °F (2017)
Degree Days  
Heating Degree Days 0 2  
Month to date heating degree days 2 3  
Since 1 July heating degree days 4 26  
Cooling Degree Days 4 4  
Month to date cooling degree days 4 8  
Year to date cooling degree days 727 551  
Growing Degree Days 19 (Base 50)    
Moisture  
Dew Point 62 °F    
Average Humidity 81    
Maximum Humidity 93    
Minimum Humidity 68    
Precipitation  
Precipitation 0.96 in 0.10 in 2.19 in (1945)
Month to date precipitation 0.96 0.19  
Year to date precipitation 29.94 26.34  
Sea Level Pressure  
Sea Level Pressure 30.01 in    
Wind  
Wind Speed 9 mph (South)    
Max Wind Speed 16 mph    
Max Gust Speed 25 mph    
Visibility 8 miles    
Events Rain , Thunderstorm    
T = Trace of Precipitation, MM = Missing Value Source: NWS Daily Summary

Daily Weather History Graph

Daily Weather History Graph

Search for Another Location

Airport or City:

Astronomy

Sep. 02, 2019 Rise Set
Actual Time 6:20 AM EDT 7:28 PM EDT
Civil Twilight 5:51 AM EDT 7:57 PM EDT
Nautical Twilight 5:16 AM EDT 8:31 PM EDT
Astronomical Twilight 4:40 AM EDT 9:08 PM EDT
Moon 10:04 AM EDT (9/2) 9:43 PM EDT (9/2)
Length of Visible Light 14h 05m
Length of Day
13h 07m
Waxing Crescent, 15% of the Moon is Illuminated
Sep 2
Waxing Crescent
Sep 5
First Quarter
Sep 14
Full
Sep 21
Last Quarter
Sep 28
New

Hourly Weather History & Observations

Time (EDT) Temp. Dew Point Humidity Pressure Visibility Wind Dir Wind Speed Gust Speed Precip Events Conditions
12:51 AM 66.9 °F 55.9 °F 68% 30.17 in 10.0 mi SSE 13.8 mph 23.0 mph 0.00 in Rain Light Rain
1:51 AM 64.0 °F 57.0 °F 78% 30.16 in 7.0 mi SSE 13.8 mph - 0.04 in Rain Light Rain
2:51 AM 64.9 °F 57.0 °F 75% 30.13 in 10.0 mi South 15.0 mph 23.0 mph 0.01 in Rain Light Rain
3:51 AM 64.9 °F 57.0 °F 75% 30.11 in 10.0 mi South 11.5 mph 23.0 mph 0.00 in Rain Light Rain
4:51 AM 64.9 °F 57.0 °F 75% 30.10 in 9.0 mi South 13.8 mph 20.7 mph 0.00 in Rain Light Rain
5:51 AM 64.9 °F 57.9 °F 78% 30.09 in 10.0 mi SSE 9.2 mph - 0.02 in   Overcast
6:51 AM 64.9 °F 57.9 °F 78% 30.08 in 10.0 mi South 12.7 mph - N/A   Overcast
7:51 AM 64.9 °F 59.0 °F 81% 30.09 in 9.0 mi South 10.4 mph - 0.01 in Rain Light Rain
8:51 AM 64.9 °F 60.1 °F 84% 30.06 in 10.0 mi SSE 9.2 mph - 0.02 in   Overcast
9:51 AM 66.0 °F 61.0 °F 84% 30.04 in 8.0 mi South 8.1 mph - 0.01 in Rain Light Rain
10:16 AM 66.0 °F 61.0 °F 84% 30.02 in 8.0 mi South 9.2 mph - 0.01 in Rain Light Rain
10:51 AM 66.0 °F 61.0 °F 84% 30.01 in 6.0 mi SSE 9.2 mph - 0.03 in Rain Light Rain
11:13 AM 66.0 °F 61.0 °F 84% 30.00 in 5.0 mi South 10.4 mph - 0.02 in Rain Light Rain
11:51 AM 66.0 °F 62.1 °F 87% 30.00 in 5.0 mi South 12.7 mph - 0.07 in Rain Light Rain
12:51 PM 70.0 °F 64.9 °F 84% 29.97 in 10.0 mi South 10.4 mph - 0.02 in   Scattered Clouds
1:51 PM 72.0 °F 64.0 °F 76% 29.96 in 10.0 mi SSE 8.1 mph - N/A   Mostly Cloudy
2:51 PM 73.0 °F 64.9 °F 76% 29.94 in 10.0 mi SSE 11.5 mph - N/A   Mostly Cloudy
3:25 PM 75.0 °F 66.0 °F 73% 29.93 in 10.0 mi SE 13.8 mph - N/A Thunderstorm Thunderstorm
3:51 PM 73.0 °F 64.9 °F 76% 29.94 in 5.0 mi NNW 17.3 mph 25.3 mph 0.00 in Rain , Thunderstorm Thunderstorms and Rain
3:53 PM 72.0 °F 64.9 °F 78% 29.95 in 1.8 mi NNW 9.2 mph 25.3 mph 0.00 in Rain , Thunderstorm Thunderstorms and Rain
4:13 PM 70.0 °F 66.9 °F 90% 29.93 in 2.0 mi Calm Calm - 0.72 in Rain , Thunderstorm Light Thunderstorms and Rain
4:22 PM 70.0 °F 66.9 °F 90% 29.94 in 3.0 mi SSE 4.6 mph - 0.73 in Rain , Thunderstorm Light Thunderstorms and Rain
4:34 PM 71.1 °F 66.0 °F 84% 29.94 in 5.0 mi Calm Calm - 0.73 in Rain , Thunderstorm Light Thunderstorms and Rain
4:51 PM 72.0 °F 66.0 °F 81% 29.94 in 10.0 mi South 3.5 mph - 0.73 in Thunderstorm Thunderstorm
5:10 PM 71.1 °F 66.9 °F 87% 29.95 in 10.0 mi South 4.6 mph - N/A   Mostly Cloudy
5:51 PM 71.1 °F 66.9 °F 87% 29.96 in 10.0 mi WSW 5.8 mph - N/A   Mostly Cloudy
6:51 PM 71.1 °F 64.9 °F 81% 29.95 in 10.0 mi West 6.9 mph - N/A   Scattered Clouds
7:51 PM 68.0 °F 63.0 °F 84% 29.96 in 10.0 mi WNW 6.9 mph - N/A   Partly Cloudy
8:51 PM 68.0 °F 60.1 °F 76% 29.98 in 10.0 mi WNW 11.5 mph - N/A   Partly Cloudy
9:51 PM 64.9 °F 60.1 °F 84% 30.01 in 10.0 mi Calm Calm - N/A   Partly Cloudy
10:51 PM 63.0 °F 60.1 °F 90% 30.01 in 10.0 mi Calm Calm - N/A   Partly Cloudy
11:51 PM 63.0 °F 57.9 °F 84% 30.01 in 10.0 mi West 6.9 mph - N/A   Partly Cloudy